When you browse on this site, cookies collect data to enhance your experience and personalize the content and advertising you see.
Visit our Privacy Policy to learn more. By continuing to use the site, you agree to this use of cookies and data.

Meteo orario Shondrovo

Oggi, 9 Luglio, Giovedi

Tempo Temperatura Precipitazioni Vento Pressione Umidità
00:00 +15°C° 0.7 mm 7 m/s 735 mm Hg 96%
01:00 +15°C° 1.2 mm 6 m/s 735 mm Hg 96%
02:00 +14°C° 1.2 mm 5 m/s 735 mm Hg 96%
03:00 +13°C° 0 mm 4 m/s 735 mm Hg 94%
04:00 +13°C° 0.1 mm 4 m/s 736 mm Hg 94%
05:00 +13°C° 0.1 mm 5 m/s 736 mm Hg 94%
06:00 +12°C° 0.1 mm 5 m/s 736 mm Hg 94%
07:00 +13°C° 0 mm 5 m/s 737 mm Hg 90%
08:00 +14°C° 0 mm 5 m/s 737 mm Hg 87%
09:00 +15°C° 0 mm 5 m/s 738 mm Hg 84%
10:00 +16°C° 0 mm 5 m/s 738 mm Hg 80%
11:00 +17°C° 0 mm 5 m/s 739 mm Hg 76%
12:00 +19°C° 0 mm 4 m/s 739 mm Hg 71%
13:00 +20°C° 0 mm 4 m/s 739 mm Hg 70%
14:00 +20°C° 0 mm 4 m/s 739 mm Hg 70%
15:00 +20°C° 0 mm 3 m/s 740 mm Hg 69%
16:00 +20°C° 0.1 mm 3 m/s 740 mm Hg 70%
17:00 +20°C° 0.1 mm 3 m/s 740 mm Hg 71%
18:00 +19°C° 0.1 mm 3 m/s 740 mm Hg 73%
19:00 +18°C° 0.1 mm 3 m/s 741 mm Hg 78%
20:00 +16°C° 0.1 mm 3 m/s 741 mm Hg 83%
21:00 +15°C° 0.1 mm 2 m/s 741 mm Hg 88%
22:00 +14°C° 0 mm 2 m/s 741 mm Hg 89%
23:00 +13°C° 0 mm 2 m/s 742 mm Hg 90%

Domani, 10 Luglio, Venerdi

Tempo Temperatura Precipitazioni Vento Pressione Umidità
00:00 +12°C° 0 mm 3 m/s 742 mm Hg 92%
01:00 +12°C° 0 mm 2 m/s 742 mm Hg 92%
02:00 +12°C° 0 mm 2 m/s 742 mm Hg 92%
03:00 +12°C° 0 mm 2 m/s 743 mm Hg 92%
04:00 +12°C° 0 mm 2 m/s 743 mm Hg 92%
05:00 +12°C° 0 mm 2 m/s 743 mm Hg 91%
06:00 +13°C° 0 mm 2 m/s 744 mm Hg 90%
07:00 +14°C° 0 mm 2 m/s 744 mm Hg 84%
08:00 +16°C° 0 mm 2 m/s 744 mm Hg 77%
09:00 +18°C° 0 mm 1 m/s 745 mm Hg 71%
10:00 +18°C° 0 mm 2 m/s 745 mm Hg 67%
11:00 +19°C° 0 mm 2 m/s 745 mm Hg 63%
12:00 +20°C° 0 mm 2 m/s 745 mm Hg 59%
13:00 +20°C° 0 mm 2 m/s 745 mm Hg 58%
14:00 +21°C° 0 mm 2 m/s 745 mm Hg 58%
15:00 +21°C° 0 mm 2 m/s 744 mm Hg 57%
16:00 +21°C° 0 mm 2 m/s 744 mm Hg 60%
17:00 +21°C° 0 mm 2 m/s 744 mm Hg 64%
18:00 +21°C° 0 mm 2 m/s 744 mm Hg 67%
19:00 +19°C° 0 mm 2 m/s 745 mm Hg 71%
20:00 +18°C° 0 mm 2 m/s 745 mm Hg 75%
21:00 +16°C° 0 mm 2 m/s 745 mm Hg 78%
22:00 +16°C° 0 mm 2 m/s 745 mm Hg 79%
23:00 +15°C° 0 mm 2 m/s 745 mm Hg 80%

Dopodomani, 11 Luglio, Sabato

Tempo Temperatura Precipitazioni Vento Pressione Umidità
00:00 +14°C° 0 mm 3 m/s 745 mm Hg 81%
01:00 +14°C° 0 mm 3 m/s 745 mm Hg 82%
02:00 +13°C° 0 mm 3 m/s 745 mm Hg 82%
03:00 +13°C° 0 mm 3 m/s 745 mm Hg 83%
04:00 +13°C° 0 mm 3 m/s 745 mm Hg 84%
05:00 +14°C° 0 mm 3 m/s 745 mm Hg 84%
06:00 +14°C° 0 mm 3 m/s 745 mm Hg 85%
07:00 +17°C° 0 mm 4 m/s 745 mm Hg 81%
08:00 +19°C° 0 mm 4 m/s 745 mm Hg 78%
09:00 +20°C° 0 mm 5 m/s 745 mm Hg 74%
10:00 +21°C° 0 mm 5 m/s 745 mm Hg 73%
11:00 +22°C° 0 mm 5 m/s 745 mm Hg 72%
12:00 +23°C° 0 mm 5 m/s 745 mm Hg 70%
13:00 +25°C° 0 mm 5 m/s 745 mm Hg 70%
14:00 +25°C° 0 mm 5 m/s 745 mm Hg 70%
15:00 +26°C° 0 mm 5 m/s 745 mm Hg 70%
16:00 +26°C° 0 mm 5 m/s 744 mm Hg 73%
17:00 +25°C° 0 mm 4 m/s 744 mm Hg 75%
18:00 +25°C° 0 mm 4 m/s 744 mm Hg 77%
19:00 +24°C° 0 mm 3 m/s 744 mm Hg 82%
20:00 +22°C° 0 mm 3 m/s 744 mm Hg 86%
21:00 +20°C° 0 mm 3 m/s 744 mm Hg 90%
22:00 +20°C° 0 mm 3 m/s 744 mm Hg 90%
23:00 +19°C° 0 mm 3 m/s 744 mm Hg 90%

12 Luglio, Domenica

Tempo Temperatura Precipitazioni Vento Pressione Umidità
00:00 +18°C° 0 mm 3 m/s 744 mm Hg 90%
01:00 +18°C° 0 mm 3 m/s 744 mm Hg 90%
02:00 +18°C° 0 mm 3 m/s 743 mm Hg 90%
03:00 +17°C° 0 mm 3 m/s 743 mm Hg 90%
04:00 +18°C° 0 mm 3 m/s 743 mm Hg 90%
05:00 +18°C° 0 mm 2 m/s 743 mm Hg 89%
06:00 +18°C° 0 mm 2 m/s 743 mm Hg 88%
07:00 +20°C° 0 mm 2 m/s 743 mm Hg 84%
08:00 +21°C° 0 mm 2 m/s 743 mm Hg 80%
09:00 +24°C° 0 mm 2 m/s 743 mm Hg 75%
10:00 +25°C° 0 mm 2 m/s 743 mm Hg 72%
11:00 +26°C° 0 mm 3 m/s 743 mm Hg 69%
12:00 +27°C° 0 mm 3 m/s 743 mm Hg 66%
13:00 +27°C° 0 mm 3 m/s 742 mm Hg 64%
14:00 +27°C° 0 mm 3 m/s 742 mm Hg 63%
15:00 +28°C° 0 mm 3 m/s 742 mm Hg 62%
16:00 +27°C° 0 mm 2 m/s 741 mm Hg 64%
17:00 +27°C° 0 mm 2 m/s 741 mm Hg 66%
18:00 +27°C° 0 mm 2 m/s 741 mm Hg 69%
19:00 +25°C° 0 mm 2 m/s 741 mm Hg 72%
20:00 +23°C° 0 mm 1 m/s 740 mm Hg 76%
21:00 +22°C° 0 mm 1 m/s 740 mm Hg 79%
22:00 +21°C° 0 mm 1 m/s 740 mm Hg 80%
23:00 +20°C° 0 mm 1 m/s 740 mm Hg 81%

13 Luglio, Lunedi

Tempo Temperatura Precipitazioni Vento Pressione Umidità
00:00 +19°C° 0 mm 2 m/s 740 mm Hg 82%
01:00 +19°C° 0 mm 1 m/s 739 mm Hg 82%
02:00 +19°C° 0 mm 1 m/s 739 mm Hg 82%
03:00 +18°C° 0 mm 1 m/s 739 mm Hg 82%
04:00 +18°C° 0 mm 1 m/s 739 mm Hg 82%
05:00 +19°C° 0 mm 1 m/s 738 mm Hg 82%
06:00 +19°C° 0 mm 1 m/s 738 mm Hg 82%
07:00 +20°C° 0 mm 2 m/s 738 mm Hg 79%
08:00 +21°C° 0 mm 2 m/s 738 mm Hg 76%
09:00 +24°C° 0 mm 2 m/s 738 mm Hg 72%
10:00 +24°C° 0 mm 3 m/s 738 mm Hg 71%
11:00 +25°C° 0 mm 3 m/s 738 mm Hg 69%
12:00 +26°C° 0 mm 3 m/s 737 mm Hg 67%
13:00 +26°C° 0.1 mm 3 m/s 737 mm Hg 68%
14:00 +26°C° 0.1 mm 2 m/s 737 mm Hg 69%
15:00 +26°C° 0.1 mm 2 m/s 737 mm Hg 70%
16:00 +25°C° 0.9 mm 2 m/s 736 mm Hg 75%
17:00 +24°C° 0.9 mm 2 m/s 736 mm Hg 80%
18:00 +23°C° 0.9 mm 2 m/s 735 mm Hg 85%
19:00 +23°C° 0.6 mm 2 m/s 735 mm Hg 86%
20:00 +22°C° 0.6 mm 1 m/s 735 mm Hg 86%
21:00 +21°C° 0.6 mm 1 m/s 735 mm Hg 86%
22:00 +21°C° 0.1 mm 1 m/s 735 mm Hg 88%
23:00 +21°C° 0.1 mm 1 m/s 734 mm Hg 89%

14 Luglio, Martedi

Tempo Temperatura Precipitazioni Vento Pressione Umidità
00:00 +20°C° 0.1 mm 1 m/s 734 mm Hg 91%
01:00 +19°C° 0.2 mm 2 m/s 734 mm Hg 92%
02:00 +19°C° 0.2 mm 2 m/s 733 mm Hg 93%
03:00 +19°C° 0.2 mm 2 m/s 733 mm Hg 95%
04:00 +19°C° 0.3 mm 2 m/s 733 mm Hg 95%
05:00 +19°C° 0.3 mm 3 m/s 733 mm Hg 96%
06:00 +19°C° 0.3 mm 3 m/s 732 mm Hg 97%
07:00 +19°C° 0.1 mm 3 m/s 732 mm Hg 96%
08:00 +20°C° 0.1 mm 3 m/s 732 mm Hg 94%
09:00 +21°C° 0.1 mm 3 m/s 732 mm Hg 93%
10:00 +21°C° 0.2 mm 3 m/s 732 mm Hg 90%
11:00 +22°C° 0.2 mm 3 m/s 731 mm Hg 88%
12:00 +24°C° 0.2 mm 3 m/s 731 mm Hg 85%
13:00 +25°C° 0.4 mm 3 m/s 731 mm Hg 82%
14:00 +25°C° 0.4 mm 3 m/s 731 mm Hg 79%
15:00 +26°C° 0.4 mm 3 m/s 731 mm Hg 75%
16:00 +26°C° 0.5 mm 3 m/s 730 mm Hg 78%
17:00 +25°C° 0.5 mm 3 m/s 730 mm Hg 81%
18:00 +25°C° 0.5 mm 3 m/s 730 mm Hg 83%
19:00 +22°C° 0.1 mm 3 m/s 730 mm Hg 87%
20:00 +21°C° 0.1 mm 3 m/s 730 mm Hg 90%
21:00 +19°C° 0.1 mm 3 m/s 731 mm Hg 94%
22:00 +18°C° 0 mm 3 m/s 731 mm Hg 95%
23:00 +17°C° 0 mm 3 m/s 731 mm Hg 96%
Mostrare altro